contact:dominique.lefevre@mio.osupytheas.fr, maurice.libes@osupytheas.fr, didier.mallarino@osupytheas.fr
Project:EMSO http://www.emso-fr.org/EMSO-France
Depth: 2436.0 m
Title:EMSO Ligure Ouest : Data MII capteur AQUADOPP
Date,Latitude,Longitude,X_East,Y_North,Z_Up,Amplitude_X,Amplitude_Y,Amplitude_Z,Batterie,SoundSpeed,Heading,Pitch,Roll,Pressure,TIS,Speed,Direction
, degrees North, degrees East, m.s-1, m.s-1,m.s-1, 1, 1, 1, Volt, m.s-1, degree, degree, degree, dbar, degree_C, m.s-1, degree
2020-12-10T00:04:03,42.805,6.029,-0.055,-0.022,-0.014,103.0,105.0,102.0,13.4,1505.2,325.3,-0.7,1.8,2470.433,13.3,0.059,248.2
2020-12-10T00:07:03,42.805,6.029,-0.05,-0.035,0.006,103.0,105.0,100.0,13.4,1505.3,324.7,-0.7,1.8,2470.425,13.31,0.061,235.0
2020-12-10T00:10:03,42.805,6.029,-0.072,-0.025,-0.009,103.0,105.0,102.0,13.4,1505.3,324.5,-0.7,1.8,2470.428,13.31,0.076,250.9
2020-12-10T00:13:03,42.805,6.029,-0.063,-0.028,-0.023,104.0,104.0,101.0,13.4,1505.3,326.8,-0.7,1.8,2470.426,13.31,0.068,246.0
2020-12-10T00:16:03,42.805,6.029,-0.048,-0.021,0.003,103.0,104.0,100.0,13.4,1505.3,327.2,-0.7,1.8,2470.439,13.32,0.052,246.4
2020-12-10T00:19:03,42.805,6.029,-0.076,-0.018,0.017,103.0,105.0,101.0,13.3,1505.3,323.2,-0.7,1.8,2470.375,13.32,0.078,256.7
2020-12-10T00:22:03,42.805,6.029,-0.04,-0.022,-0.018,103.0,104.0,101.0,13.4,1505.3,323.8,-0.7,1.8,2470.419,13.32,0.045,241.2
2020-12-10T00:25:03,42.805,6.029,-0.072,-0.004,-0.022,103.0,105.0,101.0,13.4,1505.3,326.3,-0.7,1.8,2470.46,13.32,0.072,266.8
2020-12-10T00:28:03,42.805,6.029,-0.069,-0.013,-0.048,103.0,104.0,101.0,13.4,1505.3,326.3,-0.7,1.8,2470.42,13.32,0.07,259.3
2020-12-10T00:31:03,42.805,6.029,-0.071,-0.011,-0.015,104.0,103.0,100.0,13.4,1505.3,326.5,-0.7,1.8,2470.45,13.32,0.071,261.2
2020-12-10T00:34:03,42.805,6.029,-0.034,-0.008,-0.061,104.0,104.0,101.0,13.4,1505.3,324.0,-0.7,1.8,2470.426,13.32,0.034,256.8
2020-12-10T00:37:03,42.805,6.029,-0.063,-0.028,-0.039,102.0,105.0,101.0,13.4,1505.3,323.7,-0.7,1.9,2470.432,13.32,0.068,246.0
2020-12-10T00:40:03,42.805,6.029,-0.044,-0.007,-0.029,104.0,105.0,100.0,13.4,1505.3,326.3,-0.7,1.8,2470.434,13.32,0.044,261.0
2020-12-10T00:43:03,42.805,6.029,-0.039,-0.023,0.012,104.0,105.0,101.0,13.4,1505.3,324.0,-0.8,1.8,2470.429,13.32,0.045,239.5
2020-12-10T00:46:03,42.805,6.029,-0.034,-0.022,0.003,105.0,104.0,100.0,13.4,1505.3,327.0,-0.7,1.8,2470.423,13.32,0.04,237.1
2020-12-10T00:49:03,42.805,6.029,-0.062,-0.009,0.017,103.0,105.0,101.0,13.4,1505.3,323.4,-0.7,1.8,2470.465,13.32,0.062,261.7
2020-12-10T00:52:03,42.805,6.029,-0.052,-0.029,-0.026,104.0,105.0,100.0,13.4,1505.3,323.7,-0.7,1.9,2470.387,13.32,0.059,240.9
2020-12-10T00:55:03,42.805,6.029,-0.054,-0.017,-0.039,103.0,106.0,101.0,13.4,1505.3,322.8,-0.7,1.8,2470.432,13.32,0.056,252.5
2020-12-10T00:58:03,42.805,6.029,-0.057,-0.008,-0.013,103.0,106.0,101.0,13.3,1505.3,325.4,-0.7,1.8,2470.435,13.32,0.057,262.0
2020-12-10T01:04:03,42.805,6.029,-0.036,-0.021,0.01,105.0,106.0,101.0,13.4,1505.2,325.5,-0.7,1.8,2470.463,13.3,0.041,239.7
2020-12-10T01:07:03,42.805,6.029,-0.061,-0.013,-0.029,103.0,104.0,101.0,13.4,1505.3,326.3,-0.7,1.8,2470.474,13.31,0.062,258.0
2020-12-10T01:10:03,42.805,6.029,-0.049,-0.009,-0.029,104.0,103.0,100.0,13.4,1505.3,326.5,-0.7,1.9,2470.414,13.31,0.049,259.6
2020-12-10T01:13:03,42.805,6.029,-0.061,-0.029,-0.046,104.0,105.0,99.0,13.4,1505.3,325.9,-0.7,1.8,2470.494,13.31,0.067,244.6
2020-12-10T01:16:03,42.805,6.029,-0.076,-0.032,-0.035,105.0,104.0,101.0,13.3,1505.3,325.8,-0.7,1.8,2470.466,13.32,0.082,247.2
2020-12-10T01:19:03,42.805,6.029,-0.039,-0.033,0.01,101.0,106.0,101.0,13.4,1505.3,326.3,-0.7,1.8,2470.467,13.32,0.051,229.8
2020-12-10T01:22:02,42.805,6.029,-0.086,-0.026,-0.029,103.0,105.0,100.0,13.3,1505.3,326.3,-0.7,1.9,2470.443,13.32,0.089,253.2
2020-12-10T01:25:03,42.805,6.029,-0.078,-0.007,-0.005,104.0,104.0,102.0,13.3,1505.3,327.2,-0.7,1.8,2470.456,13.32,0.078,264.9
2020-12-10T01:28:03,42.805,6.029,-0.051,-0.013,-0.025,103.0,104.0,100.0,13.3,1505.3,326.6,-0.7,1.8,2470.455,13.32,0.052,255.7
2020-12-10T01:31:03,42.805,6.029,-0.055,-0.022,0.008,102.0,105.0,100.0,13.4,1505.3,324.0,-0.7,1.8,2470.425,13.32,0.059,248.2
2020-12-10T01:34:03,42.805,6.029,-0.056,-0.009,0.014,103.0,105.0,101.0,13.3,1505.3,326.8,-0.7,1.8,2470.451,13.32,0.056,260.9
2020-12-10T01:37:03,42.805,6.029,-0.032,-0.028,0.028,105.0,105.0,100.0,13.4,1505.3,325.2,-0.7,1.9,2470.453,13.32,0.042,228.8
2020-12-10T01:40:03,42.805,6.029,-0.028,-0.012,0.006,103.0,105.0,101.0,13.3,1505.3,322.7,-0.7,1.9,2470.464,13.32,0.03,246.8
2020-12-10T01:43:03,42.805,6.029,-0.057,-0.013,-0.036,104.0,105.0,102.0,13.4,1505.3,326.0,-0.7,1.8,2470.491,13.32,0.058,257.2
2020-12-10T01:46:03,42.805,6.029,-0.065,-0.034,-0.05,103.0,105.0,102.0,13.3,1505.3,325.4,-0.7,1.8,2470.496,13.32,0.073,242.4
2020-12-10T01:49:03,42.805,6.029,-0.025,-0.021,-0.043,103.0,104.0,101.0,13.4,1505.3,326.4,-0.7,1.8,2470.482,13.32,0.032,230.0
2020-12-10T01:52:03,42.805,6.029,-0.075,-0.03,-0.031,103.0,104.0,101.0,13.4,1505.3,325.1,-0.7,1.9,2470.477,13.32,0.08,248.2
2020-12-10T01:55:03,42.805,6.029,-0.074,-0.002,-0.001,103.0,104.0,101.0,13.4,1505.3,327.1,-0.7,1.8,2470.43,13.32,0.074,268.5
2020-12-10T01:58:03,42.805,6.029,-0.063,-0.024,0.014,104.0,104.0,101.0,13.4,1505.3,324.0,-0.7,1.8,2470.473,13.32,0.067,249.1
2020-12-10T02:04:03,42.805,6.029,-0.059,-0.014,-0.02,104.0,104.0,102.0,13.4,1505.2,326.0,-0.8,1.8,2470.474,13.3,0.06,256.7
2020-12-10T02:07:03,42.805,6.029,-0.039,-0.02,-0.004,104.0,104.0,101.0,13.4,1505.3,326.5,-0.7,1.8,2470.502,13.31,0.043,242.9
2020-12-10T02:10:03,42.805,6.029,-0.051,-0.02,-0.003,105.0,105.0,100.0,13.4,1505.3,325.8,-0.7,1.8,2470.509,13.31,0.054,248.6
2020-12-10T02:13:03,42.805,6.029,-0.055,-0.027,0.004,103.0,103.0,101.0,13.3,1505.3,327.0,-0.7,1.8,2470.482,13.31,0.061,243.9
2020-12-10T02:16:03,42.805,6.029,-0.061,-0.02,-0.01,102.0,105.0,100.0,13.4,1505.3,326.1,-0.7,1.8,2470.5,13.32,0.064,251.9
2020-12-10T02:19:03,42.805,6.029,-0.062,-0.036,0.002,104.0,103.0,101.0,13.4,1505.3,325.6,-0.7,1.8,2470.526,13.32,0.071,239.9
2020-12-10T02:22:03,42.805,6.029,-0.093,0.008,-0.003,104.0,103.0,101.0,13.3,1505.3,326.1,-0.7,1.8,2470.503,13.32,0.093,274.9
2020-12-10T02:25:03,42.805,6.029,-0.05,-0.028,-0.022,104.0,103.0,100.0,13.3,1505.3,326.5,-0.7,1.8,2470.49,13.32,0.057,240.7
2020-12-10T02:28:03,42.805,6.029,-0.074,-0.014,-0.048,104.0,104.0,102.0,13.4,1505.3,326.4,-0.7,1.9,2470.478,13.32,0.075,259.3
2020-12-10T02:31:03,42.805,6.029,-0.092,-0.023,-0.014,103.0,105.0,101.0,13.3,1505.3,326.1,-0.7,1.8,2470.471,13.32,0.094,256.0
2020-12-10T02:34:03,42.805,6.029,-0.076,-0.03,-0.016,103.0,106.0,101.0,13.4,1505.3,325.1,-0.7,1.8,2470.461,13.32,0.081,248.5
2020-12-10T02:37:03,42.805,6.029,-0.028,-0.031,-0.031,103.0,106.0,101.0,13.4,1505.3,323.0,-0.7,1.8,2470.564,13.32,0.041,222.1
2020-12-10T02:40:03,42.805,6.029,-0.075,-0.04,-0.023,105.0,104.0,100.0,13.3,1505.3,326.0,-0.7,1.9,2470.449,13.32,0.084,241.9
2020-12-10T02:43:03,42.805,6.029,-0.052,-0.024,-0.008,104.0,105.0,100.0,13.3,1505.3,324.9,-0.7,1.8,2470.497,13.32,0.057,245.2
2020-12-10T02:46:03,42.805,6.029,-0.044,-0.021,-0.025,104.0,105.0,100.0,13.4,1505.3,323.5,-0.7,1.8,2470.469,13.32,0.048,244.5
2020-12-10T02:49:03,42.805,6.029,-0.079,-0.042,-0.041,104.0,105.0,101.0,13.4,1505.3,326.5,-0.7,1.8,2470.478,13.32,0.089,242.0
2020-12-10T02:52:03,42.805,6.029,-0.063,-0.034,-0.009,103.0,104.0,101.0,13.3,1505.3,324.1,-0.7,1.8,2470.478,13.32,0.071,241.6
2020-12-10T02:55:03,42.805,6.029,-0.046,-0.01,-0.016,104.0,104.0,100.0,13.4,1505.3,327.3,-0.7,1.9,2470.482,13.32,0.047,257.7
2020-12-10T02:58:03,42.805,6.029,-0.07,-0.02,-0.012,103.0,106.0,101.0,13.3,1505.3,327.8,-0.7,1.8,2470.49,13.32,0.072,254.1
2020-12-10T03:04:03,42.805,6.029,-0.07,-0.024,-0.06,102.0,104.0,101.0,13.3,1505.2,325.6,-0.8,1.8,2470.544,13.3,0.073,251.1
2020-12-10T03:07:03,42.805,6.029,-0.065,-0.016,0.001,104.0,105.0,100.0,13.4,1505.3,324.9,-0.7,1.8,2470.557,13.31,0.066,256.2
2020-12-10T03:10:03,42.805,6.029,-0.095,-0.003,0.005,104.0,103.0,100.0,13.4,1505.3,326.8,-0.7,1.8,2470.488,13.31,0.095,268.2
2020-12-10T03:13:03,42.805,6.029,-0.074,-0.017,-0.05,103.0,105.0,100.0,13.4,1505.3,326.1,-0.7,1.8,2470.53,13.31,0.075,257.1
2020-12-10T03:16:03,42.805,6.029,-0.066,0.0,0.012,104.0,104.0,100.0,13.4,1505.3,326.7,-0.7,1.8,2470.516,13.32,0.065,270.0
2020-12-10T03:19:03,42.805,6.029,-0.061,-0.042,-0.04,104.0,104.0,101.0,13.4,1505.3,325.6,-0.7,1.8,2470.462,13.32,0.074,235.4
2020-12-10T03:22:03,42.805,6.029,-0.06,-0.02,0.013,104.0,104.0,101.0,13.4,1505.3,324.9,-0.7,1.8,2470.505,13.32,0.063,251.6
2020-12-10T03:25:03,42.805,6.029,-0.104,-0.021,0.009,103.0,104.0,101.0,13.4,1505.3,323.3,-0.7,1.8,2470.501,13.32,0.106,258.6
2020-12-10T03:28:03,42.805,6.029,-0.071,-0.02,0.007,103.0,105.0,101.0,13.4,1505.3,325.2,-0.7,1.8,2470.483,13.32,0.073,254.3
2020-12-10T03:31:03,42.805,6.029,-0.088,-0.01,-0.011,104.0,105.0,101.0,13.3,1505.3,327.9,-0.7,1.8,2470.511,13.32,0.088,263.5
2020-12-10T03:34:03,42.805,6.029,-0.061,-0.042,0.01,105.0,105.0,101.0,13.3,1505.3,324.3,-0.7,1.8,2470.503,13.32,0.074,235.4
2020-12-10T03:37:03,42.805,6.029,-0.071,-0.015,-0.009,104.0,105.0,100.0,13.4,1505.3,325.2,-0.7,1.8,2470.513,13.32,0.072,258.1
2020-12-10T03:40:03,42.805,6.029,-0.04,-0.018,-0.01,104.0,104.0,101.0,13.4,1505.3,324.8,-0.7,1.9,2470.493,13.32,0.043,245.8
2020-12-10T03:43:03,42.805,6.029,-0.062,-0.015,-0.011,103.0,105.0,101.0,13.4,1505.3,324.5,-0.7,1.8,2470.53,13.32,0.063,256.4
2020-12-10T03:46:03,42.805,6.029,-0.048,-0.017,-0.024,104.0,104.0,101.0,13.4,1505.3,325.4,-0.7,1.9,2470.502,13.32,0.05,250.5
2020-12-10T03:49:03,42.805,6.029,-0.084,-0.023,-0.002,105.0,105.0,100.0,13.3,1505.3,324.6,-0.7,1.9,2470.492,13.32,0.087,254.7
2020-12-10T03:52:03,42.805,6.029,-0.054,-0.028,-0.022,104.0,105.0,101.0,13.4,1505.3,324.5,-0.7,1.8,2470.492,13.32,0.06,242.6
2020-12-10T03:55:03,42.805,6.029,-0.079,-0.006,-0.034,104.0,104.0,102.0,13.4,1505.3,326.0,-0.7,1.8,2470.538,13.32,0.079,265.7
2020-12-10T03:58:03,42.805,6.029,-0.071,-0.039,-0.023,102.0,105.0,102.0,13.4,1505.3,323.5,-0.6,1.8,2470.511,13.32,0.081,241.2
2020-12-10T04:04:03,42.805,6.029,-0.052,-0.014,0.009,104.0,104.0,101.0,13.4,1505.2,326.7,-0.7,1.8,2470.526,13.3,0.053,254.9
2020-12-10T04:07:03,42.805,6.029,-0.058,-0.012,0.008,104.0,105.0,102.0,13.3,1505.3,327.8,-0.7,1.8,2470.488,13.31,0.059,258.3
2020-12-10T04:10:03,42.805,6.029,-0.05,-0.02,-0.008,103.0,105.0,101.0,13.3,1505.3,323.2,-0.7,1.8,2470.555,13.31,0.053,248.2
2020-12-10T04:13:03,42.805,6.029,-0.062,-0.036,-0.025,104.0,105.0,101.0,13.3,1505.3,327.0,-0.7,1.9,2470.522,13.31,0.071,239.9
2020-12-10T04:16:03,42.805,6.029,-0.056,-0.017,-0.003,103.0,106.0,101.0,13.3,1505.3,324.5,-0.7,1.8,2470.51,13.32,0.058,253.1
2020-12-10T04:19:03,42.805,6.029,-0.054,-0.019,-0.015,105.0,104.0,101.0,13.4,1505.3,328.1,-0.7,1.8,2470.489,13.32,0.057,250.6
2020-12-10T04:22:03,42.805,6.029,-0.045,-0.021,0.001,104.0,105.0,101.0,13.4,1505.3,325.2,-0.7,1.8,2470.541,13.32,0.049,245.0
2020-12-10T04:25:03,42.805,6.029,-0.053,-0.019,-0.032,104.0,106.0,100.0,13.4,1505.3,323.7,-0.7,1.8,2470.498,13.32,0.056,250.3
2020-12-10T04:28:03,42.805,6.029,-0.065,-0.024,-0.031,103.0,106.0,100.0,13.3,1505.3,323.5,-0.7,1.8,2470.453,13.32,0.069,249.7
2020-12-10T04:31:03,42.805,6.029,-0.036,-0.035,-0.018,105.0,103.0,101.0,13.4,1505.3,327.3,-0.7,1.8,2470.508,13.32,0.05,225.8
2020-12-10T04:34:03,42.805,6.029,-0.073,-0.025,-0.028,104.0,104.0,101.0,13.3,1505.3,326.3,-0.7,1.8,2470.523,13.32,0.077,251.1
2020-12-10T04:37:03,42.805,6.029,-0.06,-0.007,-0.014,103.0,104.0,100.0,13.4,1505.3,327.5,-0.7,1.9,2470.46,13.32,0.06,263.3
2020-12-10T04:40:03,42.805,6.029,-0.058,-0.019,-0.022,103.0,105.0,101.0,13.4,1505.3,325.5,-0.7,1.8,2470.509,13.32,0.061,251.9
2020-12-10T04:43:03,42.805,6.029,-0.036,-0.008,-0.002,104.0,104.0,101.0,13.4,1505.3,325.7,-0.7,1.8,2470.486,13.32,0.036,257.5
2020-12-10T04:46:03,42.805,6.029,-0.065,-0.005,0.0,103.0,105.0,101.0,13.3,1505.3,324.6,-0.7,1.8,2470.48,13.32,0.065,265.6
2020-12-10T04:49:03,42.805,6.029,-0.044,-0.019,-0.039,104.0,104.0,100.0,13.4,1505.3,325.9,-0.7,1.8,2470.486,13.32,0.047,246.6
2020-12-10T04:52:03,42.805,6.029,-0.052,-0.004,-0.007,105.0,104.0,101.0,13.3,1505.3,328.4,-0.7,1.8,2470.487,13.32,0.052,265.6
2020-12-10T04:55:03,42.805,6.029,-0.021,-0.032,-0.023,103.0,104.0,102.0,13.4,1505.3,325.1,-0.7,1.8,2470.499,13.32,0.038,213.3
2020-12-10T04:58:03,42.805,6.029,-0.037,-0.043,-0.008,103.0,105.0,102.0,13.4,1505.3,324.5,-0.7,1.8,2470.473,13.32,0.056,220.7
2020-12-10T05:04:03,42.805,6.029,-0.07,-0.02,0.005,104.0,105.0,101.0,13.3,1505.2,326.0,-0.7,1.8,2470.525,13.3,0.072,254.1
2020-12-10T05:07:03,42.805,6.029,-0.056,-0.02,-0.015,104.0,106.0,100.0,13.3,1505.3,324.6,-0.7,1.8,2470.539,13.31,0.059,250.4
2020-12-10T05:10:03,42.805,6.029,-0.061,-0.009,0.037,104.0,105.0,100.0,13.4,1505.3,324.9,-0.7,1.8,2470.54,13.31,0.061,261.6
2020-12-10T05:13:03,42.805,6.029,-0.09,-0.02,-0.049,104.0,105.0,101.0,13.4,1505.3,323.2,-0.7,1.8,2470.493,13.31,0.092,257.5
2020-12-10T05:16:03,42.805,6.029,-0.075,-0.042,-0.025,104.0,105.0,101.0,13.4,1505.3,326.4,-0.7,1.8,2470.526,13.32,0.085,240.7
2020-12-10T05:19:03,42.805,6.029,-0.038,-0.013,0.016,103.0,104.0,101.0,13.4,1505.3,326.6,-0.7,1.9,2470.497,13.32,0.04,251.1
2020-12-10T05:22:03,42.805,6.029,-0.07,-0.035,-0.014,104.0,105.0,101.0,13.4,1505.3,324.5,-0.7,1.8,2470.502,13.32,0.078,243.4
2020-12-10T05:25:03,42.805,6.029,-0.048,-0.005,-0.037,103.0,105.0,101.0,13.3,1505.3,327.5,-0.7,1.8,2470.508,13.32,0.048,264.1
2020-12-10T05:28:03,42.805,6.029,-0.079,-0.01,-0.005,103.0,105.0,102.0,13.4,1505.3,325.2,-0.7,1.9,2470.514,13.32,0.079,262.8
2020-12-10T05:31:03,42.805,6.029,-0.047,-0.004,0.004,104.0,105.0,101.0,13.4,1505.3,325.1,-0.7,1.8,2470.496,13.32,0.047,265.1
2020-12-10T05:34:03,42.805,6.029,-0.051,-0.004,-0.004,103.0,105.0,101.0,13.4,1505.3,327.7,-0.7,1.8,2470.493,13.32,0.051,265.5
2020-12-10T05:37:03,42.805,6.029,-0.048,-0.033,0.002,105.0,104.0,102.0,13.4,1505.3,323.1,-0.7,1.8,2470.469,13.32,0.058,235.5
2020-12-10T05:40:03,42.805,6.029,-0.064,-0.027,0.014,104.0,105.0,101.0,13.4,1505.3,324.5,-0.7,1.8,2470.518,13.32,0.069,247.1
2020-12-10T05:43:03,42.805,6.029,-0.063,-0.002,-0.032,104.0,104.0,101.0,13.4,1505.3,327.6,-0.7,1.8,2470.482,13.32,0.063,268.2
2020-12-10T05:46:03,42.805,6.029,-0.069,-0.021,-0.009,104.0,105.0,101.0,13.3,1505.3,323.8,-0.7,1.8,2470.519,13.32,0.072,253.1
2020-12-10T05:49:03,42.805,6.029,-0.045,-0.019,-0.042,104.0,106.0,100.0,13.4,1505.3,325.5,-0.7,1.8,2470.452,13.32,0.048,247.1
2020-12-10T05:52:03,42.805,6.029,-0.037,-0.023,0.0,104.0,106.0,101.0,13.4,1505.3,327.1,-0.7,1.8,2470.478,13.32,0.043,238.1
2020-12-10T05:55:03,42.805,6.029,-0.023,-0.007,0.0,104.0,106.0,101.0,13.4,1505.3,325.5,-0.7,1.8,2470.502,13.32,0.024,253.1
2020-12-10T05:58:03,42.805,6.029,-0.075,-0.032,-0.009,102.0,105.0,102.0,13.4,1505.3,325.4,-0.7,1.8,2470.497,13.32,0.081,246.9
2020-12-10T06:04:03,42.805,6.029,-0.059,-0.001,0.026,104.0,105.0,101.0,13.4,1505.2,324.3,-0.8,1.8,2470.498,13.3,0.059,269.0
2020-12-10T06:07:03,42.805,6.029,-0.043,-0.029,0.003,104.0,106.0,101.0,13.4,1505.3,326.5,-0.8,1.8,2470.5,13.31,0.051,236.0
2020-12-10T06:10:03,42.805,6.029,-0.072,-0.021,-0.034,104.0,104.0,101.0,13.4,1505.3,327.8,-0.7,1.8,2470.463,13.31,0.074,253.7
2020-12-10T06:13:03,42.805,6.029,-0.042,-0.03,-0.001,104.0,106.0,101.0,13.3,1505.3,322.5,-0.7,1.9,2470.483,13.32,0.051,234.5
2020-12-10T06:16:03,42.805,6.029,-0.041,-0.017,0.018,104.0,104.0,101.0,13.3,1505.3,327.0,-0.7,1.8,2470.473,13.32,0.044,247.5
2020-12-10T06:19:03,42.805,6.029,-0.07,-0.028,-0.04,104.0,104.0,101.0,13.4,1505.3,325.4,-0.7,1.8,2470.472,13.32,0.075,248.2
2020-12-10T06:22:03,42.805,6.029,-0.055,-0.026,0.003,104.0,105.0,101.0,13.4,1505.3,327.8,-0.7,1.8,2470.493,13.32,0.06,244.7
2020-12-10T06:25:03,42.805,6.029,-0.077,-0.011,-0.011,104.0,105.0,101.0,13.4,1505.3,323.5,-0.7,1.8,2470.515,13.32,0.077,261.9
2020-12-10T06:28:03,42.805,6.029,-0.069,-0.003,0.0,104.0,104.0,100.0,13.3,1505.3,324.1,-0.7,1.8,2470.465,13.32,0.069,267.5
2020-12-10T06:31:03,42.805,6.029,-0.083,-0.005,-0.006,105.0,104.0,101.0,13.3,1505.3,327.3,-0.7,1.8,2470.439,13.32,0.083,266.6
2020-12-10T06:34:03,42.805,6.029,-0.039,-0.022,0.016,103.0,105.0,101.0,13.3,1505.3,325.4,-0.7,1.9,2470.507,13.32,0.044,240.6
2020-12-10T06:37:03,42.805,6.029,-0.036,-0.022,0.008,104.0,104.0,100.0,13.4,1505.3,323.5,-0.7,1.8,2470.497,13.32,0.042,238.6
2020-12-10T06:40:03,42.805,6.029,-0.06,-0.028,-0.017,104.0,104.0,100.0,13.3,1505.3,324.9,-0.7,1.8,2470.446,13.32,0.066,245.0
2020-12-10T06:43:03,42.805,6.029,-0.029,-0.036,-0.02,103.0,105.0,102.0,13.4,1505.3,328.2,-0.7,1.8,2470.436,13.32,0.046,218.9
2020-12-10T06:46:03,42.805,6.029,-0.061,-0.019,-0.024,104.0,104.0,102.0,13.3,1505.3,324.7,-0.7,1.8,2470.485,13.32,0.063,252.7
2020-12-10T06:49:03,42.805,6.029,-0.06,-0.005,-0.031,104.0,104.0,100.0,13.4,1505.3,326.0,-0.7,1.8,2470.433,13.32,0.06,265.2
2020-12-10T06:52:03,42.805,6.029,-0.033,-0.014,0.014,104.0,104.0,101.0,13.4,1505.3,326.0,-0.7,1.8,2470.465,13.32,0.035,247.0
2020-12-10T06:55:03,42.805,6.029,-0.076,-0.023,-0.039,104.0,105.0,101.0,13.4,1505.3,327.5,-0.7,1.8,2470.443,13.32,0.079,253.2
2020-12-10T06:58:03,42.805,6.029,-0.101,-0.026,-0.038,104.0,104.0,100.0,13.3,1505.3,324.7,-0.7,1.8,2470.49,13.32,0.104,255.6
2020-12-10T07:04:03,42.805,6.029,-0.049,-0.029,0.003,104.0,105.0,102.0,13.4,1505.2,323.2,-0.8,1.8,2470.476,13.3,0.056,239.4
2020-12-10T07:07:03,42.805,6.029,-0.056,-0.018,0.001,104.0,104.0,102.0,13.4,1505.3,325.4,-0.7,1.8,2470.458,13.31,0.058,252.2
2020-12-10T07:10:03,42.805,6.029,-0.046,-0.031,-0.03,105.0,104.0,101.0,13.4,1505.3,325.1,-0.7,1.8,2470.448,13.31,0.055,236.0
2020-12-10T07:13:03,42.805,6.029,-0.08,-0.018,0.005,103.0,105.0,101.0,13.3,1505.3,324.7,-0.7,1.8,2470.475,13.31,0.081,257.3
2020-12-10T07:16:03,42.805,6.029,-0.062,-0.039,-0.022,103.0,105.0,101.0,13.4,1505.3,325.5,-0.7,1.8,2470.459,13.32,0.073,237.8
2020-12-10T07:19:03,42.805,6.029,-0.061,-0.031,-0.029,103.0,104.0,101.0,13.4,1505.3,326.4,-0.7,1.8,2470.472,13.32,0.068,243.1
2020-12-10T07:22:03,42.805,6.029,-0.056,-0.027,-0.036,104.0,105.0,100.0,13.4,1505.3,325.6,-0.7,1.8,2470.463,13.32,0.062,244.3
2020-12-10T07:25:03,42.805,6.029,-0.064,-0.004,-0.026,104.0,104.0,102.0,13.4,1505.3,324.7,-0.7,1.8,2470.454,13.32,0.064,266.4
2020-12-10T07:28:03,42.805,6.029,-0.037,-0.012,-0.023,104.0,105.0,100.0,13.4,1505.3,322.7,-0.7,1.8,2470.46,13.32,0.038,252.0
2020-12-10T07:31:03,42.805,6.029,-0.048,-0.017,-0.015,103.0,105.0,101.0,13.4,1505.3,325.9,-0.7,1.8,2470.41,13.32,0.05,250.5
2020-12-10T07:34:03,42.805,6.029,-0.061,-0.025,-0.03,104.0,105.0,100.0,13.4,1505.3,326.6,-0.7,1.9,2470.452,13.32,0.065,247.7
2020-12-10T07:37:03,42.805,6.029,-0.065,-0.019,-0.015,103.0,105.0,101.0,13.4,1505.3,325.6,-0.7,1.8,2470.441,13.32,0.067,253.7
2020-12-10T07:40:03,42.805,6.029,-0.048,-0.022,-0.012,103.0,104.0,102.0,13.3,1505.3,325.8,-0.7,1.8,2470.433,13.32,0.052,245.4
2020-12-10T07:43:03,42.805,6.029,-0.062,-0.026,-0.003,103.0,105.0,102.0,13.4,1505.3,324.1,-0.7,1.9,2470.448,13.32,0.067,247.3
2020-12-10T07:46:03,42.805,6.029,-0.061,-0.024,0.018,102.0,106.0,102.0,13.4,1505.3,326.0,-0.7,1.9,2470.447,13.32,0.065,248.5
2020-12-10T07:49:03,42.805,6.029,-0.039,-0.032,0.014,104.0,105.0,101.0,13.3,1505.3,324.6,-0.7,1.8,2470.446,13.32,0.05,230.6
2020-12-10T07:52:03,42.805,6.029,-0.045,-0.03,0.0,104.0,104.0,101.0,13.4,1505.3,325.8,-0.7,1.8,2470.421,13.32,0.054,236.3
2020-12-10T07:55:03,42.805,6.029,-0.049,-0.013,0.006,104.0,104.0,100.0,13.3,1505.3,326.6,-0.7,1.8,2470.431,13.32,0.05,255.1
2020-12-10T07:58:03,42.805,6.029,-0.049,-0.031,0.019,105.0,106.0,101.0,13.3,1505.3,323.0,-0.7,1.8,2470.439,13.32,0.057,237.7
2020-12-10T08:04:03,42.805,6.029,-0.051,-0.021,0.001,104.0,105.0,101.0,13.4,1505.2,328.2,-0.8,1.8,2470.463,13.3,0.055,247.6
2020-12-10T08:07:03,42.805,6.029,-0.053,-0.039,-0.028,103.0,104.0,101.0,13.4,1505.3,324.6,-0.7,1.8,2470.454,13.31,0.065,233.7
2020-12-10T08:10:03,42.805,6.029,-0.075,-0.018,-0.052,105.0,103.0,102.0,13.3,1505.3,326.2,-0.7,1.8,2470.398,13.31,0.077,256.5
2020-12-10T08:13:03,42.805,6.029,-0.043,-0.019,-0.011,105.0,105.0,101.0,13.4,1505.3,327.1,-0.7,1.8,2470.423,13.31,0.047,246.2
2020-12-10T08:16:03,42.805,6.029,-0.043,-0.029,-0.021,104.0,106.0,100.0,13.3,1505.3,324.6,-0.7,1.8,2470.459,13.32,0.051,236.0
2020-12-10T08:19:03,42.805,6.029,-0.04,-0.006,-0.004,104.0,105.0,101.0,13.4,1505.3,328.2,-0.7,1.8,2470.415,13.32,0.04,261.5
2020-12-10T08:22:03,42.805,6.029,-0.051,-0.006,0.0,104.0,105.0,100.0,13.4,1505.3,323.7,-0.7,1.9,2470.431,13.32,0.051,263.3
2020-12-10T08:25:03,42.805,6.029,-0.041,-0.007,-0.009,103.0,105.0,102.0,13.3,1505.3,327.4,-0.7,1.9,2470.428,13.32,0.041,260.3
2020-12-10T08:28:03,42.805,6.029,-0.026,-0.017,0.024,103.0,106.0,101.0,13.3,1505.3,323.6,-0.7,1.8,2470.467,13.32,0.031,236.8
2020-12-10T08:31:03,42.805,6.029,-0.029,-0.034,-0.012,105.0,105.0,101.0,13.4,1505.3,322.8,-0.7,1.8,2470.441,13.32,0.044,220.5
2020-12-10T08:34:03,42.805,6.029,-0.051,-0.033,-0.032,105.0,104.0,101.0,13.4,1505.3,324.0,-0.7,1.8,2470.416,13.32,0.06,237.1
2020-12-10T08:37:03,42.805,6.029,-0.057,-0.023,-0.009,103.0,105.0,101.0,13.4,1505.3,323.2,-0.7,1.8,2470.447,13.32,0.061,248.0
2020-12-10T08:40:03,42.805,6.029,-0.058,-0.018,-0.016,104.0,104.0,101.0,13.3,1505.3,323.3,-0.7,1.8,2470.436,13.32,0.06,252.8
2020-12-10T08:43:03,42.805,6.029,-0.064,-0.04,-0.017,104.0,105.0,100.0,13.4,1505.3,323.0,-0.7,1.8,2470.413,13.32,0.075,238.0
2020-12-10T08:46:03,42.805,6.029,-0.051,-0.018,-0.002,102.0,105.0,101.0,13.4,1505.3,327.6,-0.7,1.8,2470.418,13.32,0.054,250.6
2020-12-10T08:49:03,42.805,6.029,-0.084,-0.041,-0.047,103.0,106.0,100.0,13.3,1505.3,327.7,-0.7,1.8,2470.424,13.32,0.093,244.0
2020-12-10T08:52:03,42.805,6.029,-0.045,-0.037,-0.01,104.0,105.0,101.0,13.3,1505.3,323.4,-0.7,1.8,2470.399,13.32,0.058,230.6
2020-12-10T08:55:03,42.805,6.029,-0.046,-0.011,-0.008,104.0,104.0,101.0,13.4,1505.3,327.6,-0.7,1.8,2470.451,13.32,0.047,256.6
2020-12-10T08:58:03,42.805,6.029,-0.078,-0.024,-0.052,103.0,105.0,100.0,13.3,1505.3,324.4,-0.7,1.8,2470.397,13.32,0.081,252.9
2020-12-10T09:04:03,42.805,6.029,-0.044,-0.029,0.006,104.0,104.0,101.0,13.4,1505.2,325.8,-0.7,1.8,2470.444,13.3,0.052,236.6
2020-12-10T09:07:03,42.805,6.029,-0.054,-0.003,0.007,103.0,105.0,101.0,13.3,1505.3,324.7,-0.7,1.8,2470.454,13.31,0.054,266.8
2020-12-10T09:10:03,42.805,6.029,-0.065,-0.026,0.001,104.0,105.0,101.0,13.4,1505.3,324.6,-0.7,1.8,2470.427,13.31,0.07,248.2
2020-12-10T09:13:03,42.805,6.029,-0.042,-0.01,0.002,105.0,104.0,101.0,13.3,1505.3,326.8,-0.7,1.8,2470.451,13.31,0.043,256.6
2020-12-10T09:16:03,42.805,6.029,-0.039,-0.025,-0.018,103.0,105.0,101.0,13.3,1505.3,326.4,-0.7,1.8,2470.446,13.32,0.046,237.3
2020-12-10T09:19:03,42.805,6.029,-0.059,-0.022,-0.013,103.0,105.0,102.0,13.3,1505.3,326.3,-0.7,1.8,2470.481,13.32,0.062,249.6
2020-12-10T09:22:03,42.805,6.029,-0.034,-0.036,-0.011,103.0,105.0,102.0,13.4,1505.3,326.3,-0.7,1.8,2470.415,13.32,0.049,223.4
2020-12-10T09:25:03,42.805,6.029,-0.045,-0.022,-0.005,104.0,105.0,102.0,13.4,1505.3,325.9,-0.7,1.8,2470.453,13.32,0.05,243.9
2020-12-10T09:28:03,42.805,6.029,-0.058,-0.026,-0.031,106.0,105.0,100.0,13.4,1505.3,327.3,-0.7,1.9,2470.395,13.32,0.063,245.9
2020-12-10T09:31:03,42.805,6.029,-0.034,-0.026,-0.007,104.0,104.0,102.0,13.4,1505.3,324.4,-0.7,1.8,2470.401,13.32,0.042,232.6
2020-12-10T09:34:03,42.805,6.029,-0.046,-0.021,-0.028,104.0,104.0,101.0,13.3,1505.3,324.6,-0.7,1.8,2470.407,13.32,0.05,245.5
2020-12-10T09:37:03,42.805,6.029,-0.053,-0.032,-0.024,104.0,104.0,100.0,13.4,1505.3,326.0,-0.7,1.8,2470.418,13.32,0.061,238.9
2020-12-10T09:40:03,42.805,6.029,-0.055,-0.036,-0.019,103.0,105.0,102.0,13.3,1505.3,326.8,-0.7,1.8,2470.444,13.32,0.065,236.8
2020-12-10T09:43:03,42.805,6.029,-0.075,-0.047,-0.029,103.0,105.0,101.0,13.3,1505.3,323.8,-0.7,1.8,2470.424,13.32,0.088,237.9
2020-12-10T09:46:03,42.805,6.029,-0.071,-0.022,-0.054,104.0,104.0,102.0,13.3,1505.3,323.7,-0.7,1.8,2470.417,13.32,0.074,252.8
2020-12-10T09:49:03,42.805,6.029,-0.032,-0.007,0.019,103.0,104.0,102.0,13.4,1505.3,324.0,-0.7,1.8,2470.419,13.32,0.032,257.7